Location: Clay (historical)
(35.1476°N, 89.8179°W)
Time: 00:15:40
(UTC+00:00)

Cosmos 2233 Rocket - Pass Details

Date: 18 February 2026
Orbit: 953 x 989 km, 82.9° (Epoch: 7 March)

Event Time Altitude Azimuth Distance (km) Brightness Sun altitude
Rises 12:01:58 0° 176° (S) 3,614 7.1 -8.9°
Reaches altitude 10° 12:04:27 10° 174° (S) 2,674 6.5 -8.4°
Maximum altitude 12:10:30 66° 93° (E) 1,039 4.5 -7.1°
Drops below altitude 10° 12:16:37 10° 12° (NNE) 2,708 6.4 -5.9°
Sets 12:19:09 0° 10° (N) 3,664 7.0 -5.4°
